Ord, NE

9:22 PM CST on January 20, 2018 (GMT -0600)
Sharp

Weather History for KODX - September, 2012

Change the Weather History Date:

Monday, September 10, 2012

  Actual Average Record
Temperature  
Mean Temperature 70 °F 66 °F  
Max Temperature 92 °F 81 °F 95 °F (1998)
Min Temperature 47 °F 52 °F 39 °F (1999)
Degree Days  
Heating Degree Days 0 2  
Month to date heating degree days 14 15  
Since 1 July heating degree days 25 29  
Cooling Degree Days 5 3  
Month to date cooling degree days 63 47  
Year to date cooling degree days 1205 804  
Growing Degree Days 20 (Base 50)    
Moisture  
Dew Point 41 °F    
Average Humidity 46    
Maximum Humidity 77    
Minimum Humidity 15    
Precipitation  
Precipitation 0.00 in 0.08 in 3.04 in (2006)
Month to date precipitation 0.04 0.89  
Year to date precipitation 10.96 19.80  
Sea Level Pressure  
Sea Level Pressure 29.90 in    
Wind  
Wind Speed 14 mph (South)    
Max Wind Speed 32 mph    
Max Gust Speed 40 mph    
Visibility 10 miles    
Events      
T = Trace of Precipitation, MM = Missing Value Source: NWS Daily Summary

Daily Weather History Graph

Daily Weather History Graph

Search for Another Location

Airport or City:

Trip Planner

Search our weather history database for the weather conditions in past years. The results will help you decide how hot, cold, wet, or windy it might be!

Date:

Astronomy

Sep. 10, 2012 Rise Set
Actual Time 7:11 AM CDT 7:52 PM CDT
Civil Twilight 6:43 AM CDT 8:20 PM CDT
Nautical Twilight 6:10 AM CDT 8:53 PM CDT
Astronomical Twilight 5:35 AM CDT 9:28 PM CDT
Moon 1:30 AM CDT (9/10) 4:26 PM CDT (9/10)
Length of Visible Light 13h 37m
Length of Day
12h 41m
Waning Crescent, 30% of the Moon is Illuminated
Sep 10
Waning Crescent
Sep 15
New
Sep 22
First Quarter
Sep 29
Full
Oct 8
Last Quarter

Hourly Weather History & Observations

Time (CDT) Temp. Dew Point Humidity Pressure Visibility Wind Dir Wind Speed Gust Speed Precip Events Conditions
12:53 AM 57.9 °F 39.0 °F 49% 30.05 in 10.0 mi South 5.8 mph - N/A   Clear
1:53 AM 57.9 °F 39.0 °F 49% 30.04 in 10.0 mi South 4.6 mph - N/A   Clear
2:53 AM 55.9 °F 39.9 °F 55% 30.04 in 10.0 mi Calm Calm - N/A   Clear
3:53 AM 54.0 °F 39.9 °F 59% 30.03 in 10.0 mi SE 4.6 mph - N/A   Clear
4:53 AM 55.0 °F 42.1 °F 62% 30.03 in 10.0 mi SSE 4.6 mph - N/A   Clear
5:53 AM 48.0 °F 41.0 °F 77% 30.02 in 10.0 mi Calm Calm - N/A   Clear
6:53 AM 54.0 °F 43.0 °F 66% 30.01 in 10.0 mi South 8.1 mph - N/A   Clear
7:53 AM 55.9 °F 43.0 °F 62% 30.01 in 10.0 mi SSE 9.2 mph - N/A   Clear
8:53 AM 62.1 °F 44.1 °F 52% 29.98 in 10.0 mi South 12.7 mph 19.6 mph N/A   Clear
9:53 AM 70.0 °F 43.0 °F 38% 29.96 in 10.0 mi South 17.3 mph 21.9 mph N/A   Clear
10:53 AM 75.0 °F 44.1 °F 33% 29.94 in 10.0 mi South 18.4 mph 26.5 mph N/A   Clear
11:53 AM 79.0 °F 44.1 °F 29% 29.92 in 10.0 mi South 18.4 mph 26.5 mph N/A   Clear
12:53 PM 86.0 °F 45.0 °F 24% 29.88 in 10.0 mi SSW 18.4 mph 25.3 mph N/A   Clear
1:53 PM 88.0 °F 42.1 °F 20% 29.84 in 10.0 mi South 24.2 mph 40.3 mph N/A   Clear
2:53 PM 90.0 °F 41.0 °F 18% 29.83 in 10.0 mi South 21.9 mph 38.0 mph N/A   Clear
3:53 PM 91.9 °F 41.0 °F 17% 29.81 in 10.0 mi South 23.0 mph 35.7 mph N/A   Clear
4:53 PM 91.9 °F 39.0 °F 16% 29.78 in 10.0 mi South 29.9 mph 39.1 mph N/A   Clear
5:53 PM 91.0 °F 37.0 °F 15% 29.77 in 10.0 mi South 27.6 mph 39.1 mph N/A   Clear
6:53 PM 88.0 °F 39.9 °F 18% 29.77 in 10.0 mi South 18.4 mph 32.2 mph N/A   Clear
7:53 PM 82.9 °F 39.9 °F 22% 29.78 in 10.0 mi South 16.1 mph 21.9 mph N/A   Clear
8:53 PM 81.0 °F 39.9 °F 23% 29.78 in 10.0 mi SSE 10.4 mph 18.4 mph N/A   Clear
9:53 PM 77.0 °F 39.0 °F 25% 29.79 in 10.0 mi SSE 9.2 mph - N/A   Clear
10:53 PM 75.9 °F 39.0 °F 26% 29.78 in 10.0 mi South 16.1 mph 23.0 mph N/A   Clear
11:53 PM 72.0 °F 39.9 °F 31% 29.78 in 10.0 mi South 11.5 mph - N/A   Clear